Regional Weather Roundup
Issued by NWS

Home | Current Version | Previous Version | Graphics & Text | Print | Product List | Glossary On
Versions: 1 2 3 4 5 6 7 8 9 10 11 12 13 14 15 16 17 18 19 20 21 22 23 24 25 26 27
000
ASUS45 KBOI 190010
RWRID

IDAHO REGIONAL WEATHER ROUNDUP
NATIONAL WEATHER SERVICE BOISE ID
600 PM MDT MON SEP 18 2017

NOTE: "FAIR" INDICATES FEW OR NO CLOUDS BELOW 12000 FEET
WITH NO SIGNIFICANT WEATHER AND/OR OBSTRUCTIONS TO VISIBILITY

IDZ012-014-190100-
SOUTHWEST IDAHO


CITY           SKY/WX    TMP DP  RH WIND       PRES   REMARKS
BOISE          CLOUDY    56  53  90 E6        29.78F
CALDWELL       LGT RAIN  59  54  83 E3        29.76S
MOUNTAIN HOME  TSTM      59  50  72 N21       29.77R
$$

IDZ016-017-190100-
SOUTHCENTRAL IDAHO


CITY           SKY/WX    TMP DP  RH WIND       PRES   REMARKS
BURLEY         CLOUDY    62  42  47 CALM      29.76F
JEROME         CLOUDY    64  42  44 SW6       29.76F
TWIN FALLS     CLOUDY    63  41  44 E3        29.75F
$$

IDZ019>023-190100-
SOUTHEAST IDAHO


CITY           SKY/WX    TMP DP  RH WIND       PRES   REMARKS
IDAHO FALLS    CLOUDY    58  43  57 W18       29.82R
POCATELLO      CLOUDY    62  42  47 W8        29.81S
REXBURG        CLOUDY    58  40  51 W16G30    29.80R
$$

IDZ006-010-011-018-031-032-190100-
CENTRAL IDAHO MOUNTAINS


CITY           SKY/WX    TMP DP  RH WIND       PRES   REMARKS
MCCALL         CLOUDY    46  43  89 CALM      29.78F
HAILEY         LGT RAIN  54  48  82 CALM      29.83F
STANLEY          N/A     42  39  89 CALM      29.85S
SALMON         CLOUDY    50  47  89 CALM      29.76F
CHALLIS        CLOUDY    51  43  74 S7        29.77F
$$

IDZ002-004-006-007-026-190100-
NORTHERN IDAHO


CITY           SKY/WX    TMP DP  RH WIND       PRES   REMARKS
LEWISTON       CLOUDY    62  45  53 SE8       29.73F
LOWELL           N/A     51  47  86 W5        29.83F
COEUR D`ALENE  PTSUNNY   57  41  55 S15       29.68S
MULLAN PASS    LGT SNOW  33  31  92 VRB5      29.74S VSB 3/4 WCI  29
$$




USA.gov is the U.S. government's official web portal to all federal, state and local government web resources and services.